STARLINK-33803, 63517

Orbit data source: Space-Track

STARLINK-33803, 63517 is a payload satellite owned by SpaceX/Seattle (US) in LEO that was launched on Mon, 07 Apr 2025 UTC via an FALCON 9 launch vehicle from the Air Force Western Test Range (AFWTR). Payload-class satellites include a variety of spacecraft equipped with specific instruments for various scientific and technological missions. These include communications satellites like Starlink; space stations such as the ISS; scientific satellites like the Hubble; Earth observation satellites from companies like Planet Labs, Umbra, and HawkEye 360; GPS; miniature CubeSats for education and research; and military/defense satellites.

Loading next visibility...
Identifier
63517, 2025-071AA
Orbit
LEO
Last TLE update
1 day ago
Origin
Manufacturer
SpaceX/Seattle
Mission
Operational Commercial Communications
Bus & Motor
STARLINK V2MO, Unknown motor
Mass
575 kg wet, ~530 kg dry
Launch date (UTC)
2025-04-07 (1 month ago)
Launch vehicle
FALCON 9
Launch site
Air Force Western Test Range (AFWTR)
Object type
Payload
Rocket body
Debris
Shape & HBR
Box + 1 Pan, 29 m
Radar Cross Section
41.120 m², Large (>1 m²)

Expand to show TLE details & history

TLE from 1 day ago
0 STARLINK-33803
1 63517U 25071AA  25128.26379143  .00091423  00000-0  78550-3 0  9997
2 63517  53.1579 121.6960 0001150  91.9781 268.1369 15.68624666  5966
Epoch: 2025-05-08T06:19Z
Definitive object data (Epoch: 2025-05-08T06:19:51.579Z)
Latitude
0.00005°
Longitude
160.39433°
Altitude
363.774 km
Speed
7.692 km/s
True Right ascension
08h 06m 47s
True Declination
0° 00' 00"
Sunlit
Object was in daylight at TLE epoch
Visualization TLE readout
Latitude
-53.2188°
Longitude
69.54211°
Altitude
381.492 km
Speed
7.68 km/s
Apparent Right ascension
04h 01m 45s
Apparent Declination
-49° 47' 42"
Sunlit
Object is in daylight
Visualization observer readout
Local Sidereal Time
17:38:17
Azimuth
128.21° SE
Elevation
-70.372°
Doppler factor
1
Orbital elements
Apogee altitude
363.871 km
Perigee altitude
362.32 km
Semi-major axis
6,741.232 km
Eccentricity
0.000115
Inclination
53.1579°
RAAN
121.696°
Arg. of periapsis
91.9781°
True anomaly
268.12373°
Mean anomaly
268.1369°
Eccentric anomaly
268.13031°
Mean motion
3.92134 °/min
BSTAR
0.0007855
Orbital period
91.81 mins
Loading maneuver chart data...
Loading SW <> Apogee altitude chart data...
Loading historical data...
Loading historical data...
Loading historical data...
Loading historical data...
Loading historical data...
Loading historical data...
Loading historical data...

STARLINK-33803 Visibility forecast

Observer location: undefined°, undefined°

Span
Click to sort rows by Start time (UTC) header in descending order
Start Az.
Max El. time (UTC)
Max El. Az.
Max El.
End time (UTC)
End Az.
4 mins2025-05-10 01:18:57.461Z193.487° SSW2025-05-10 01:20:57.461Z128.955° SE29.437°2025-05-10 01:22:57.461Z72.312° E
|